Погода в Капыревщине

Россия / Смоленская область     55°13′50″N   32°51′45″E
темп.,
°C
ветер,
м/с
пор.,
м/с
влажн.,
%
обл.,
%
осадки,
мм/ч
давл.,
гПа
погр.,
м
13 июня, вс
вс1300:00+12ююз23955 0.0 100666
03:00+11ю25971 0.0 1006100
06:00+13ююв27935 0.0 1005213
09:00+19ю476615 0.0 1004743
12:00+21ююв46625 0.8 10041297
15:00+20ююв467894 2.6 10041132
18:00+19ю3685100 1.2 1004532
21:00+16ююв229721 1.8 100528
14 июня, пн
пн1400:00+14ю229812 0.6 100731
03:00+13ю269986 1.4 1009185
06:00+11ююз2597100 0.0 1011377
09:00+13юз2385100 0.0 1013591
12:00+20ююз235413 0.0 10141203
15:00+21юз34525 0.0 10151319
18:00+20зюз335714 0.0 10151271
21:00+15зсз22867 0.0 101639
15 июня, вт
вт1500:00+12с11945 0.0 101610
03:00+11зюз11951 0.0 101611
06:00+13юз12911 0.0 101683
09:00+19з24610 0.0 1015884
12:00+21зсз345189 0.0 10151581
15:00+22зсз244450 0.0 10131965
18:00+21зсз4551100 0.0 1013994
21:00+15з2778100 0.0 1013127
16 июня, ср
ср1600:00+14сз279579 0.0 1013144
03:00+13сз269895 0.0 1014148
06:00+14ссз279748 0.0 1014265
09:00+18ссз466943 0.0 1015991
12:00+21с454214 0.0 10161722
15:00+22с453453 0.0 10161914
18:00+21с4646100 0.0 10171405
21:00+14с3107127 0.0 1020227
17 июня, чт
чт1700:00+11ссв3107645 0.0 1022183
03:00+9ссв26745 0.0 1024102
06:00+10с26765 0.0 1025161
09:00+17ссв35475 0.0 1025600
12:00+21ссв35335 0.0 10251334
15:00+23ссв35325 0.0 10251746
18:00+22всв24440 0.0 10251702
21:00+15вюв11760 0.0 102611